Time,TemperatureF,DewpointF,PressureIn,WindDirection,WindDirectionDegrees,WindSpeedMPH,WindSpeedGustMPH,Humidity,HourlyPrecipIn,Conditions,Clouds,dailyrainin,SoftwareType,DateUTC
2013-01-25 00:11:00,58.1,49.5,30.10,South,180,0.0,-999.0,73,-99.99,,,0.00,Acu-Link.com,2013-01-25 08:11:00,
2013-01-25 00:27:00,57.4,49.5,30.10,SSW,202,0.0,-999.0,75,-99.99,,,0.00,Acu-Link.com,2013-01-25 08:27:00,
2013-01-25 00:57:00,57.2,50.1,30.10,NNE,22,0.0,-999.0,77,-99.99,,,0.00,Acu-Link.com,2013-01-25 08:57:00,
2013-01-25 01:15:00,57.2,50.4,30.09,NNW,337,0.0,-999.0,78,-99.99,,,0.00,Acu-Link.com,2013-01-25 09:15:00,
2013-01-25 01:31:00,57.0,50.2,30.08,NE,45,0.0,-999.0,78,-99.99,,,0.00,Acu-Link.com,2013-01-25 09:31:00,
2013-01-25 01:46:00,56.5,50.1,30.08,West,270,1.7,-999.0,79,-99.99,,,0.00,Acu-Link.com,2013-01-25 09:46:00,
2013-01-25 02:01:00,56.7,49.9,30.07,SSW,202,0.0,-999.0,78,-99.99,,,0.00,Acu-Link.com,2013-01-25 10:01:00,
2013-01-25 02:16:00,56.8,49.3,30.06,WSW,247,0.0,-999.0,76,-99.99,,,0.00,Acu-Link.com,2013-01-25 10:16:00,
2013-01-25 02:31:00,57.0,49.2,30.06,West,270,0.0,-999.0,75,-99.99,,,0.00,Acu-Link.com,2013-01-25 10:31:00,
2013-01-25 02:46:00,57.2,49.3,30.06,West,270,0.0,-999.0,75,-99.99,,,0.00,Acu-Link.com,2013-01-25 10:46:00,
2013-01-25 03:01:00,57.6,49.7,30.05,West,270,0.0,-999.0,75,-99.99,,,0.00,Acu-Link.com,2013-01-25 11:01:00,
2013-01-25 03:17:00,57.4,49.9,30.05,SSE,157,0.0,-999.0,76,-99.99,,,0.00,Acu-Link.com,2013-01-25 11:17:00,
2013-01-25 03:32:00,57.2,50.4,30.05,South,180,0.0,-999.0,78,-99.99,,,0.00,Acu-Link.com,2013-01-25 11:32:00,
2013-01-25 03:47:00,57.0,50.6,30.05,SSE,157,0.0,-999.0,79,-99.99,,,0.01,Acu-Link.com,2013-01-25 11:47:00,
2013-01-25 04:03:00,56.8,50.4,30.05,NE,45,0.0,-999.0,79,-99.99,,,0.01,Acu-Link.com,2013-01-25 12:03:00,
2013-01-25 04:18:00,56.7,51.3,30.05,ESE,112,0.0,-999.0,82,-99.99,,,0.02,Acu-Link.com,2013-01-25 12:18:00,
2013-01-25 04:33:00,56.5,51.4,30.05,North,0,0.0,-999.0,83,-99.99,,,0.02,Acu-Link.com,2013-01-25 12:33:00,
2013-01-25 04:49:00,56.5,51.4,30.06,West,270,0.0,-999.0,83,-99.99,,,0.04,Acu-Link.com,2013-01-25 12:49:00,
2013-01-25 05:04:00,56.5,51.7,30.05,NNE,22,0.0,-999.0,84,-99.99,,,0.04,Acu-Link.com,2013-01-25 13:04:00,
2013-01-25 05:19:00,56.5,51.7,30.06,SW,225,0.0,-999.0,84,-99.99,,,0.04,Acu-Link.com,2013-01-25 13:19:00,
2013-01-25 05:35:00,56.5,52.4,30.06,ESE,112,0.0,-999.0,86,-99.99,,,0.04,Acu-Link.com,2013-01-25 13:35:00,
2013-01-25 05:50:00,56.3,52.2,30.06,West,270,0.0,-999.0,86,-99.99,,,0.05,Acu-Link.com,2013-01-25 13:50:00,
2013-01-25 06:05:00,56.5,52.4,30.05,South,180,0.0,-999.0,86,-99.99,,,0.05,Acu-Link.com,2013-01-25 14:05:00,
2013-01-25 06:21:00,56.5,52.7,30.06,NNW,337,0.0,-999.0,87,-99.99,,,0.05,Acu-Link.com,2013-01-25 14:21:00,
2013-01-25 06:36:00,56.5,52.7,30.06,NW,315,0.0,-999.0,87,-99.99,,,0.05,Acu-Link.com,2013-01-25 14:36:00,
2013-01-25 06:51:00,56.5,53.0,30.05,West,270,0.0,-999.0,88,-99.99,,,0.06,Acu-Link.com,2013-01-25 14:51:00,
2013-01-25 07:06:00,56.7,53.2,30.06,West,270,0.0,-999.0,88,-99.99,,,0.06,Acu-Link.com,2013-01-25 15:06:00,
2013-01-25 07:22:00,56.7,53.2,30.06,West,270,0.0,-999.0,88,-99.99,,,0.06,Acu-Link.com,2013-01-25 15:22:00,
2013-01-25 07:37:00,56.8,53.3,30.06,NNE,22,0.0,-999.0,88,-99.99,,,0.06,Acu-Link.com,2013-01-25 15:37:00,
2013-01-25 07:52:00,57.2,53.7,30.06,NW,315,0.0,-999.0,88,-99.99,,,0.06,Acu-Link.com,2013-01-25 15:52:00,
2013-01-25 08:08:00,57.6,54.1,30.07,West,270,0.0,-999.0,88,-99.99,,,0.06,Acu-Link.com,2013-01-25 16:08:00,
2013-01-25 08:23:00,58.1,54.6,30.07,WNW,292,1.7,-999.0,88,-99.99,,,0.06,Acu-Link.com,2013-01-25 16:23:00,
2013-01-25 08:38:00,58.1,54.2,30.07,WSW,247,1.7,-999.0,87,-99.99,,,0.07,Acu-Link.com,2013-01-25 16:38:00,
2013-01-25 08:54:00,58.8,54.3,30.08,WSW,247,2.2,-999.0,85,-99.99,,,0.07,Acu-Link.com,2013-01-25 16:54:00,
2013-01-25 09:09:00,59.7,55.5,30.09,South,180,1.7,-999.0,86,-99.99,,,0.07,Acu-Link.com,2013-01-25 17:09:00,
2013-01-25 09:24:00,59.5,55.6,30.09,South,180,0.0,-999.0,87,-99.99,,,0.08,Acu-Link.com,2013-01-25 17:24:00,
2013-01-25 09:40:00,59.5,55.6,30.10,SSW,202,1.7,-999.0,87,-99.99,,,0.10,Acu-Link.com,2013-01-25 17:40:00,
2013-01-25 09:55:00,59.9,56.0,30.10,South,180,0.0,-999.0,87,-99.99,,,0.12,Acu-Link.com,2013-01-25 17:55:00,
2013-01-25 10:10:00,60.6,56.7,30.10,West,270,0.0,-999.0,87,-99.99,,,0.14,Acu-Link.com,2013-01-25 18:10:00,
2013-01-25 10:26:00,60.4,55.9,30.10,West,270,0.0,-999.0,85,-99.99,,,0.17,Acu-Link.com,2013-01-25 18:26:00,
2013-01-25 10:41:00,60.1,55.6,30.09,West,270,1.7,-999.0,85,-99.99,,,0.18,Acu-Link.com,2013-01-25 18:41:00,
2013-01-25 10:56:00,60.4,55.2,30.08,NNW,337,2.7,-999.0,83,-99.99,,,0.18,Acu-Link.com,2013-01-25 18:56:00,
2013-01-25 11:11:00,60.6,55.4,30.08,SW,225,0.0,-999.0,83,-99.99,,,0.19,Acu-Link.com,2013-01-25 19:11:00,
2013-01-25 11:27:00,60.6,55.1,30.06,West,270,2.7,-999.0,82,-99.99,,,0.19,Acu-Link.com,2013-01-25 19:27:00,
2013-01-25 11:42:00,61.2,55.0,30.05,NW,315,2.7,-999.0,80,-99.99,,,0.20,Acu-Link.com,2013-01-25 19:42:00,
2013-01-25 11:57:00,62.4,55.8,30.04,West,270,1.1,-999.0,79,-99.99,,,0.20,Acu-Link.com,2013-01-25 19:57:00,
2013-01-25 12:13:00,63.0,56.0,30.03,West,270,0.0,-999.0,78,-99.99,,,0.20,Acu-Link.com,2013-01-25 20:13:00,
2013-01-25 12:28:00,62.6,55.6,30.02,South,180,0.0,-999.0,78,-99.99,,,0.21,Acu-Link.com,2013-01-25 20:28:00,
2013-01-25 12:43:00,62.6,55.6,30.00,South,180,2.2,-999.0,78,-99.99,,,0.22,Acu-Link.com,2013-01-25 20:43:00,
2013-01-25 12:59:00,62.8,55.5,29.99,South,180,1.7,-999.0,77,-99.99,,,0.23,Acu-Link.com,2013-01-25 20:59:00,
2013-01-25 13:14:00,63.0,56.0,29.99,South,180,1.7,-999.0,78,-99.99,,,0.23,Acu-Link.com,2013-01-25 21:14:00,
2013-01-25 13:29:00,63.3,56.3,29.98,South,180,0.0,-999.0,78,-99.99,,,0.23,Acu-Link.com,2013-01-25 21:29:00,
2013-01-25 13:44:00,63.5,56.5,29.97,West,270,0.0,-999.0,78,-99.99,,,0.23,Acu-Link.com,2013-01-25 21:44:00,
2013-01-25 14:15:00,63.1,56.1,29.97,West,270,0.0,-999.0,78,-99.99,,,0.25,Acu-Link.com,2013-01-25 22:15:00,
2013-01-25 14:30:00,62.8,56.2,29.96,South,180,0.0,-999.0,79,-99.99,,,0.26,Acu-Link.com,2013-01-25 22:30:00,
2013-01-25 14:46:00,62.6,56.3,29.96,WNW,292,0.0,-999.0,80,-99.99,,,0.27,Acu-Link.com,2013-01-25 22:46:00,
2013-01-25 15:01:00,62.1,56.2,29.96,WNW,292,0.0,-999.0,81,-99.99,,,0.28,Acu-Link.com,2013-01-25 23:01:00,
2013-01-25 15:16:00,61.9,56.3,29.95,West,270,0.0,-999.0,82,-99.99,,,0.28,Acu-Link.com,2013-01-25 23:16:00,
2013-01-25 15:31:00,61.9,56.7,29.95,South,180,0.0,-999.0,83,-99.99,,,0.30,Acu-Link.com,2013-01-25 23:31:00,
2013-01-25 15:47:00,61.7,56.8,29.94,South,180,0.0,-999.0,84,-99.99,,,0.31,Acu-Link.com,2013-01-25 23:47:00,
2013-01-25 16:02:00,61.3,56.4,29.93,ESE,112,0.0,-999.0,84,-99.99,,,0.32,Acu-Link.com,2013-01-26 00:02:00,
2013-01-25 16:17:00,61.0,56.5,29.93,SSW,202,1.1,-999.0,85,-99.99,,,0.32,Acu-Link.com,2013-01-26 00:17:00,
2013-01-25 16:33:00,60.3,55.8,29.91,South,180,0.0,-999.0,85,-99.99,,,0.32,Acu-Link.com,2013-01-26 00:33:00,
2013-01-25 16:48:00,60.1,55.6,29.91,SSE,157,1.7,-999.0,85,-99.99,,,0.33,Acu-Link.com,2013-01-26 00:48:00,
2013-01-25 17:03:00,59.7,55.5,29.90,SSW,202,0.0,-999.0,86,-99.99,,,0.33,Acu-Link.com,2013-01-26 01:03:00,
2013-01-25 17:19:00,59.5,55.6,29.91,South,180,2.2,-999.0,87,-99.99,,,0.33,Acu-Link.com,2013-01-26 01:19:00,
2013-01-25 17:34:00,59.4,55.5,29.91,ENE,67,1.1,-999.0,87,-99.99,,,0.33,Acu-Link.com,2013-01-26 01:34:00,
2013-01-25 17:49:00,59.2,55.6,29.92,NNW,337,3.2,-999.0,88,-99.99,,,0.33,Acu-Link.com,2013-01-26 01:49:00,
2013-01-25 18:05:00,59.0,55.4,29.93,NE,45,1.7,-999.0,88,-99.99,,,0.34,Acu-Link.com,2013-01-26 02:05:00,
2013-01-25 18:20:00,58.8,55.3,29.94,WSW,247,1.1,-999.0,88,-99.99,,,0.36,Acu-Link.com,2013-01-26 02:20:00,
2013-01-25 18:35:00,58.8,55.3,29.94,West,270,0.0,-999.0,88,-99.99,,,0.38,Acu-Link.com,2013-01-26 02:35:00,
2013-01-25 18:51:00,58.6,55.1,29.94,NNE,22,0.0,-999.0,88,-99.99,,,0.40,Acu-Link.com,2013-01-26 02:51:00,
2013-01-25 19:06:00,58.6,55.1,29.94,West,270,0.0,-999.0,88,-99.99,,,0.41,Acu-Link.com,2013-01-26 03:06:00,
2013-01-25 19:21:00,58.6,57.8,29.94,West,270,0.0,-999.0,97,-99.99,,,0.42,Acu-Link.com,2013-01-26 03:21:00,
2013-01-25 19:36:00,58.6,58.0,29.93,West,270,0.0,-999.0,98,-99.99,,,0.43,Acu-Link.com,2013-01-26 03:36:00,
2013-01-25 19:52:00,58.5,57.9,29.93,West,270,0.0,-999.0,98,-99.99,,,0.43,Acu-Link.com,2013-01-26 03:52:00,
2013-01-25 20:07:00,58.5,57.9,29.92,West,270,0.0,-999.0,98,-99.99,,,0.44,Acu-Link.com,2013-01-26 04:07:00,
2013-01-25 20:22:00,58.1,57.5,29.92,WNW,292,0.0,-999.0,98,-99.99,,,0.45,Acu-Link.com,2013-01-26 04:22:00,
2013-01-25 20:38:00,58.1,57.5,29.91,South,180,0.0,-999.0,98,-99.99,,,0.46,Acu-Link.com,2013-01-26 04:38:00,
2013-01-25 20:53:00,58.1,57.5,29.90,SSE,157,0.0,-999.0,98,-99.99,,,0.46,Acu-Link.com,2013-01-26 04:53:00,
2013-01-25 21:08:00,58.1,57.5,29.91,WSW,247,0.0,-999.0,98,-99.99,,,0.46,Acu-Link.com,2013-01-26 05:08:00,
2013-01-25 21:24:00,58.1,57.5,29.91,South,180,0.0,-999.0,98,-99.99,,,0.46,Acu-Link.com,2013-01-26 05:24:00,
2013-01-25 21:39:00,58.1,57.5,29.90,WNW,292,0.0,-999.0,98,-99.99,,,0.48,Acu-Link.com,2013-01-26 05:39:00,
2013-01-25 21:54:00,58.3,57.7,29.89,NNW,337,1.7,-999.0,98,-99.99,,,0.49,Acu-Link.com,2013-01-26 05:54:00,
2013-01-25 22:10:00,58.1,57.5,29.89,SW,225,0.0,-999.0,98,-99.99,,,0.49,Acu-Link.com,2013-01-26 06:10:00,
2013-01-25 22:25:00,57.9,57.3,29.88,South,180,0.0,-999.0,98,-99.99,,,0.50,Acu-Link.com,2013-01-26 06:25:00,
2013-01-25 22:40:00,58.1,57.5,29.89,SSW,202,1.7,-999.0,98,-99.99,,,0.50,Acu-Link.com,2013-01-26 06:40:00,
2013-01-25 22:56:00,58.1,57.5,29.89,SSW,202,1.7,-999.0,98,-99.99,,,0.51,Acu-Link.com,2013-01-26 06:56:00,
2013-01-25 23:11:00,58.1,57.5,29.89,East,90,0.0,-999.0,98,-99.99,,,0.53,Acu-Link.com,2013-01-26 07:11:00,
2013-01-25 23:26:00,58.1,57.5,29.89,SSW,202,0.0,-999.0,98,-99.99,,,0.56,Acu-Link.com,2013-01-26 07:26:00,
2013-01-25 23:41:00,57.9,57.3,29.89,WSW,247,0.0,-999.0,98,-99.99,,,0.58,Acu-Link.com,2013-01-26 07:41:00,
2013-01-25 23:57:00,57.9,57.3,29.88,SSW,202,0.0,-999.0,98,-99.99,,,0.64,Acu-Link.com,2013-01-26 07:57:00,